Elsenborn, Belgium

10:54 PM CEST on September 19, 2017 (GMT +0200)
Elsenborn

Weather History for EBLB - October, 2012

Change the Weather History Date:

Sunday, October 14, 2012

  Actual Average Record
Temperature  
Mean Temperature 38 °F -  
Max Temperature 42 °F 44 °F 68 °F (1996)
Min Temperature 35 °F 37 °F 28 °F (1999)
Degree Days  
Heating Degree Days 26    
Moisture  
Dew Point 37 °F    
Average Humidity 90    
Maximum Humidity 100    
Minimum Humidity 76    
Precipitation  
Precipitation 0.08 in - - ()
Sea Level Pressure  
Sea Level Pressure 29.54 in    
Wind  
Wind Speed 7 mph ()    
Max Wind Speed 12 mph    
Max Gust Speed -    
Visibility 6.9 miles    
Events Rain    
Averages and records for this station are not official NWS values.
T = Trace of Precipitation, MM = Missing Value Source: Averaged Metar Reports

Daily Weather History Graph

Daily Weather History Graph

Search for Another Location

Airport or City:

Trip Planner

Search our weather history database for the weather conditions in past years. The results will help you decide how hot, cold, wet, or windy it might be!

Date:

Astronomy

Oct. 14, 2012 Rise Set
Actual Time 7:56 AM CEST 6:44 PM CEST
Civil Twilight 7:23 AM CEST 7:17 PM CEST
Nautical Twilight 6:45 AM CEST 7:55 PM CEST
Astronomical Twilight 6:07 AM CEST 8:33 PM CEST
Moon 6:33 AM CEST (10/14) 5:55 PM CEST (10/14)
Length of Visible Light 11h 54m
Length of Day
10h 48m
Waning Crescent, 2% of the Moon is Illuminated
Oct 14
Waning Crescent
Oct 15
New
Oct 22
First Quarter
Oct 29
Full
Nov 7
Last Quarter

Hourly Weather History & Observations

Time (CEST) Temp. Windchill Dew Point Humidity Pressure Visibility Wind Dir Wind Speed Gust Speed Precip Events Conditions
12:25 AM 39.2 °F 33.0 °F 39.2 °F 100% 29.62 in 6.2 mi SW 9.2 mph - N/A   Mostly Cloudy
1:25 AM 39.2 °F 32.5 °F 37.4 °F 93% 29.62 in 6.2 mi SW 10.4 mph - N/A   Mostly Cloudy
2:25 AM 39.2 °F 33.0 °F 37.4 °F 93% 29.62 in 6.2 mi SW 9.2 mph - N/A   Overcast
2:39 AM 39.2 °F 33.0 °F 37.4 °F 93% 29.62 in 6.2 mi SW 9.2 mph - N/A   Mostly Cloudy
2:54 AM 39.2 °F 32.5 °F 37.4 °F 93% 29.62 in 6.2 mi SW 10.4 mph - N/A   Mostly Cloudy
3:04 AM 39.2 °F 32.5 °F 37.4 °F 93% 29.62 in 6.2 mi SW 10.4 mph - N/A   Overcast
3:25 AM 39.2 °F 33.0 °F 37.4 °F 93% 29.62 in 6.2 mi SW 9.2 mph - N/A   Mostly Cloudy
4:25 AM 39.2 °F 32.0 °F 37.4 °F 93% 29.62 in 6.2 mi SSW 11.5 mph - N/A   Mostly Cloudy
5:00 AM 40 °F - 38 °F 88% 29.67 in 17 mi SW 11.2 mph - -   Scattered Clouds
6:25 AM 39.2 °F 33.0 °F 37.4 °F 93% 29.59 in 6.2 mi SSW 9.2 mph - N/A   Mostly Cloudy
6:34 AM 39.2 °F 33.0 °F 37.4 °F 93% 29.59 in 6.2 mi SSW 9.2 mph - N/A   Mostly Cloudy
6:40 AM 39.2 °F 33.0 °F 37.4 °F 93% 29.59 in 6.2 mi SSW 9.2 mph - N/A   Mostly Cloudy
7:25 AM 39.2 °F 32.5 °F 37.4 °F 93% 29.59 in 6.2 mi SW 10.4 mph - N/A   Mostly Cloudy
8:00 AM 40 °F - 38 °F 88% 29.64 in 16 mi SW 11.2 mph - -   Scattered Clouds
8:13 AM 39.2 °F 33.0 °F 37.4 °F 93% 29.59 in 6.2 mi SW 9.2 mph - N/A   Overcast
8:25 AM 39.2 °F 33.0 °F 37.4 °F 93% 29.59 in 6.2 mi SW 9.2 mph - N/A   Overcast
8:28 AM 39.2 °F 32.5 °F 37.4 °F 93% 29.59 in 6.2 mi SSW 10.4 mph - N/A   Mostly Cloudy
8:34 AM 39.2 °F 32.5 °F 37.4 °F 93% 29.59 in 6.2 mi SSW 10.4 mph - N/A   Mostly Cloudy
8:40 AM 39.2 °F 33.0 °F 37.4 °F 93% 29.59 in 6.2 mi SSW 9.2 mph - N/A   Mostly Cloudy
9:25 AM 41.0 °F 35.2 °F 37.4 °F 87% 29.59 in 6.2 mi SSW 9.2 mph - N/A   Mostly Cloudy
11:00 AM 41 °F - 37 °F 82% 29.62 in 17 mi SSW 6.7 mph - -   Scattered Clouds
11:25 AM 41.0 °F 35.8 °F 37.4 °F 87% 29.56 in 6.2 mi SSW 8.1 mph - N/A   Mostly Cloudy
12:25 PM 42.8 °F 39.3 °F 39.2 °F 87% 29.56 in 6.2 mi SSW 5.8 mph - N/A   Mostly Cloudy
1:13 PM 42.8 °F 41.1 °F 37.4 °F 81% 29.53 in 6.2 mi Variable 3.5 mph - N/A   Mostly Cloudy
1:25 PM 42.8 °F 40.1 °F 37.4 °F 81% 29.53 in 6.2 mi South 4.6 mph - N/A   Mostly Cloudy
1:53 PM 42.8 °F - 37.4 °F 81% 29.53 in 6.2 mi Variable 1.2 mph - N/A   Mostly Cloudy
2:00 PM 42 °F - 38 °F 79% 29.57 in 22 mi Calm Calm - -   Scattered Clouds
2:03 PM 42.8 °F - 37.4 °F 81% 29.53 in 6.2 mi Variable 1.2 mph - N/A   Mostly Cloudy
2:09 PM 42.8 °F - 37.4 °F 81% 29.50 in 6.2 mi Variable 2.3 mph - N/A   Mostly Cloudy
2:15 PM 42.8 °F 41.1 °F 37.4 °F 81% 29.50 in 6.2 mi Variable 3.5 mph - N/A   Mostly Cloudy
2:21 PM 42.8 °F 40.1 °F 37.4 °F 81% 29.50 in 6.2 mi South 4.6 mph - N/A   Mostly Cloudy
2:25 PM 42.8 °F 40.1 °F 37.4 °F 81% 29.50 in 6.2 mi South 4.6 mph - N/A   Mostly Cloudy
2:27 PM 42.8 °F 39.3 °F 37.4 °F 81% 29.50 in 6.2 mi South 5.8 mph - N/A   Mostly Cloudy
3:25 PM 42.8 °F 38.6 °F 35.6 °F 76% 29.50 in 6.2 mi South 6.9 mph - N/A   Light Drizzle
4:25 PM 39.2 °F 35.9 °F 37.4 °F 93% 29.47 in 6.2 mi SSE 4.6 mph - N/A   Light Drizzle
5:00 PM 39 °F - 36 °F 87% 29.53 in 25 mi 4.5 mph - - Rain Drizzle
5:18 PM 39.2 °F - 35.6 °F 87% 29.47 in 6.2 mi Variable 1.2 mph - N/A Rain Light Rain Showers
5:24 PM 39.2 °F - 37.4 °F 93% 29.47 in 6.2 mi Variable 1.2 mph - N/A Rain Light Rain Showers
5:25 PM 39.2 °F - 37.4 °F 93% 29.47 in 6.2 mi Variable 1.2 mph - N/A Rain Light Rain Showers
6:25 PM 39.2 °F - 35.6 °F 87% 29.47 in 6.2 mi Variable 2.3 mph - N/A Rain Light Rain
6:58 PM 37.4 °F - 35.6 °F 93% 29.47 in 5.6 mi Variable 2.3 mph - N/A Rain Light Rain
7:25 PM 37.4 °F 34.9 °F 35.6 °F 93% 29.47 in 5.0 mi Variable 3.5 mph - N/A Rain Light Rain
8:00 PM 37 °F - 35 °F 92% 29.54 in 4 mi 2.2 mph - - Rain Light Rain
8:03 PM 37.4 °F - 35.6 °F 93% 29.47 in 6.2 mi Variable 2.3 mph - N/A Rain Light Rain
8:20 PM 37.4 °F - 35.6 °F 93% 29.47 in 4.3 mi Variable 2.3 mph - N/A Rain Light Rain
8:25 PM 35.6 °F 32.8 °F 35.6 °F 100% 29.44 in 6.2 mi Variable 3.5 mph - N/A Rain Light Rain
8:26 PM 37.4 °F - 35.6 °F 93% 29.47 in 5.0 mi Variable 2.3 mph - N/A Rain Light Rain
9:25 PM 35.6 °F - 33.8 °F 93% 29.44 in 6.2 mi Variable 2.3 mph - N/A   Mostly Cloudy
10:25 PM 35.6 °F 32.8 °F 35.6 °F 100% 29.44 in 6.2 mi Variable 3.5 mph - N/A   Overcast
11:00 PM 36 °F - 35 °F 97% 29.50 in 19 mi Calm Calm - - Rain Light Drizzle
11:25 PM 35.6 °F - 35.6 °F 100% 29.44 in 6.2 mi Variable 1.2 mph - N/A Rain Light Rain
11:51 PM 37.4 °F - 35.6 °F 93% 29.44 in 4.3 mi Variable 2.3 mph - N/A Rain Light Rain